Flag for Germany Weather past 2 weeks in Saalfeld/Saale, Thuringia, Germany

Now
61 °F

Partly sunny.


Feels Like: 61 °F
Forecast: 47 / 67 °F
Wind: 13 mph from West

Location: Erfurt-Bindersleben

Current Time: Aug 20, 2014 at 3:42:40 PM

Latest Report: Aug 20, 2014 at 3:20 PM


Visibility: N/A

Pressure: 30.01 "Hg

Humidity: 48%

Dew point: 41 °F

Location of Saalfeld/SaaleLocation

Historic Weather in Saalfeld/Saale — Graph

°F

Saalfeld/Saale temperature yesterday

Maximum temperature yesterday: 66 °F (at 2:20 PM)
Minimum temperature yesterday: 48 °F (at 5:20 AM)
Average temperature yesterday: 56 °F

Past Weeks' High & Low Weather Summary

 TemperatureHumidityPressure
High79 °F (Aug 10, 3:20 PM)100% (Aug 6, 2:50 AM)30.12 "Hg (Aug 6, 2:50 AM)
Low45 °F (Aug 20, 4:20 AM)35% (Aug 12, 5:50 PM)29.65 "Hg (Aug 13, 3:50 PM)
Average61 °F73%29.91 "Hg
* Reported Aug 5 2:20 PM — Aug 20 2:20 PM, Saalfeld/Saale, Weather by CustomWeather, © 2014

Note: Actual official high and low records may vary slightly from our data, if they occured in-between our weather recording intervals... More about our weather records

Advertising

Saalfeld/Saale weather history for previous 24 hours

 ConditionsComfort  
Time TempWeatherWind HumidityBarometerVisibility
2:20 PM
Aug 20
59 °FScattered clouds.12 mph55%30.01 "HgN/A
1:50 PM59 °FScattered clouds.10 mph55%30.01 "HgN/A
1:20 PM59 °FScattered clouds.13 mph51%30.01 "HgN/A
12:50 PM59 °FScattered clouds.13 mph63%30.01 "HgN/A
12:20 PM57 °FScattered clouds.10 mph59%30.01 "HgN/A
11:50 AM57 °FScattered clouds.13 mph59%30.01 "HgN/A
11:20 AM55 °FScattered clouds.12 mph63%30.01 "HgN/A
10:50 AM55 °FScattered clouds.12 mph67%30.01 "HgN/A
10:20 AM55 °FScattered clouds.12 mph67%30.01 "HgN/A
9:50 AM55 °FScattered clouds.13 mph67%30.01 "HgN/A
9:20 AM54 °FPassing clouds.14 mph72%30.01 "HgN/A
8:50 AM52 °FPassing clouds.13 mph82%30.01 "HgN/A
8:20 AM50 °FSunny.9 mph82%30.01 "Hg10 mi
7:50 AM48 °FSunny.10 mph87%30.01 "Hg10 mi
7:20 AM48 °FSunny.10 mph82%29.98 "Hg10 mi
6:50 AM45 °FClear.8 mph93%29.98 "Hg10 mi
6:20 AM46 °FClear.10 mph87%29.98 "Hg10 mi
5:50 AM45 °FClear.10 mph93%29.98 "Hg10 mi
5:20 AM45 °FClear.3 mph93%29.98 "Hg10 mi
4:50 AM45 °FClear.9 mph93%29.98 "Hg10 mi
4:20 AM45 °FClear.8 mph93%29.98 "Hg10 mi
3:50 AM46 °FClear.7 mph87%29.95 "Hg10 mi
3:20 AM46 °FClear.6 mph87%29.95 "Hg10 mi
2:50 AM48 °FClear.5 mph82%29.95 "Hg10 mi
2:20 AM48 °FClear.7 mph87%29.95 "Hg10 mi
1:50 AM48 °FClear.8 mph87%29.95 "Hg10 mi
1:20 AM48 °FClear.9 mph87%29.95 "Hg10 mi
12:50 AM48 °FClear.6 mph82%29.95 "Hg10 mi
12:20 AM50 °FClear.10 mph82%29.95 "Hg10 mi
11:50 PM
Aug 19
50 °FClear.10 mph82%29.95 "Hg10 mi
11:20 PM52 °FClear.9 mph82%29.92 "Hg10 mi
10:50 PM52 °FClear.8 mph82%29.92 "Hg10 mi
10:20 PM52 °FClear.12 mph82%29.92 "Hg10 mi
9:50 PM52 °FClear.9 mph82%29.92 "Hg10 mi
9:20 PM54 °FSunny.9 mph82%29.92 "Hg10 mi
8:50 PM54 °FPartly sunny.8 mph82%29.89 "HgN/A
8:20 PM54 °FBroken clouds.6 mph88%29.89 "HgN/A
7:50 PM54 °FBroken clouds.12 mph88%29.89 "HgN/A
7:20 PM54 °FRain showers. Broken clouds.16 mph88%29.86 "HgN/A
6:50 PM55 °FSprinkles. Broken clouds.14 mph82%29.86 "HgN/A
6:20 PM59 °FScattered clouds.24 mph68%29.86 "HgN/A
5:50 PM64 °FScattered clouds.17 mph49%29.83 "HgN/A
5:20 PM64 °FSunny.18 mph46%29.83 "Hg10 mi
4:50 PM64 °FSunny.16 mph43%29.83 "Hg10 mi
4:20 PM66 °FSunny.17 mph40%29.80 "Hg10 mi
3:50 PM64 °FScattered clouds.18 mph46%29.83 "HgN/A
3:20 PM66 °FScattered clouds.16 mph43%29.83 "HgN/A
Weather by CustomWeather, © 2014

See weather overviewHow to use our weather pages